Date String (YYYY-MM-DD hh:mm:ss) UTC,Instrument flags,absolute air pressure of the measurement (hPa),sample flow rate (lpm),inlet stack bypass flow (lpm),air temperature of the measurement (°C),ambient temperature measured by the external sensor (°C),aerosol sample conditioner tube jacket temperature (°C),OPC LED temperature (°C),internal box temperature (°C),relative humidity of the measurement (%),span deviation,mass concentration of particles derived from Lorenz-Mie calculation of OPC scattering (μg/m³),mass concentration of particles derived from Lorenz-Mie calculation of OPC scattering (μg/m³),mass concentration of particles derived from Lorenz-Mie calculation of OPC scattering (μg/m³)
DateTimeUTC,F1_M11,P_M11,Q1_M11,Q2_M11,T1_M11,T2_M11,T3_M11,T4_M11,T5_M11,U1_M11,ZSPAN_M11,X2_M11,X0_M11,X1_M11
2023-07-28 04:00:00,SystemResetWarning,0835.9,5.01,000.00,029.0,027.6,000.0,037.3,030.7,29.7,0000.0,0004.87,0013.96,0003.64
2023-07-28 04:01:00,SystemResetWarning,0835.9,5.01,000.00,029.0,027.8,000.0,037.4,030.8,29.6,0000.0,0004.82,0013.88,0003.63
2023-07-28 04:02:00,SystemResetWarning,0835.8,4.98,000.00,029.1,027.3,000.0,037.3,030.8,29.8,0000.0,0004.78,0013.36,0003.63
2023-07-28 04:03:00,SystemResetWarning,0835.7,5.00,000.00,029.0,025.7,000.0,037.2,030.5,29.5,0000.0,0004.80,0012.79,0003.62
2023-07-28 04:04:00,SystemResetWarning,0835.6,5.01,000.00,029.0,025.3,000.0,037.1,030.3,29.8,0000.0,0004.79,0011.75,0003.61
2023-07-28 04:05:00,SystemResetWarning,0835.6,5.01,000.00,028.9,025.5,000.0,037.2,030.2,29.8,0000.0,0004.79,0011.76,0003.61
2023-07-28 04:06:00,SystemResetWarning,0835.6,4.99,000.00,028.8,025.9,000.0,037.2,030.3,29.6,0000.0,0004.81,0012.61,0003.61
2023-07-28 04:07:00,SystemResetWarning,0835.6,5.00,000.00,028.8,026.3,000.0,037.3,030.4,29.1,0000.0,0004.82,0012.17,0003.61
2023-07-28 04:08:00,SystemResetWarning,0835.6,5.01,000.00,028.9,026.7,000.0,037.3,030.5,28.5,0000.0,0004.76,0011.78,0003.60
2023-07-28 04:09:00,SystemResetWarning,0835.6,5.00,000.00,028.9,027.0,000.0,037.3,030.5,28.4,0000.0,0004.73,0011.20,0003.60
2023-07-28 04:10:00,SystemResetWarning,0835.6,4.98,000.00,028.9,027.3,000.0,037.3,030.6,28.4,0000.0,0004.79,0011.38,0003.60
2023-07-28 04:11:00,SystemResetWarning,0835.8,4.99,000.00,029.0,027.5,000.0,037.3,030.7,28.4,0000.0,0004.82,0011.48,0003.60
2023-07-28 04:12:00,SystemResetWarning,0835.7,5.01,000.00,029.0,027.7,000.0,037.4,030.7,28.4,0000.0,0004.90,0011.95,0003.61
2023-07-28 04:13:00,SystemResetWarning,0835.8,5.00,000.00,029.1,027.5,000.0,037.3,030.8,28.4,0000.0,0004.97,0012.78,0003.63
2023-07-28 04:14:00,SystemResetWarning,0835.8,4.98,000.00,029.0,025.8,000.0,037.2,030.6,28.6,0000.0,0005.02,0013.66,0003.65
2023-07-28 04:15:00,SystemResetWarning,0835.9,5.01,000.00,029.0,025.2,000.0,037.1,030.4,29.0,0000.0,0005.07,0014.30,0003.67
2023-07-28 04:16:00,SystemResetWarning,0835.8,5.01,000.00,028.9,025.4,000.0,037.2,030.2,29.3,0000.0,0005.08,0014.31,0003.70
2023-07-28 04:17:00,SystemResetWarning,0835.8,4.99,000.00,028.8,025.8,000.0,037.2,030.3,29.4,0000.0,0005.07,0013.65,0003.70
2023-07-28 04:18:00,SystemResetWarning,0835.8,4.99,000.00,028.8,026.2,000.0,037.2,030.3,29.6,0000.0,0005.02,0014.14,0003.71
2023-07-28 04:19:00,SystemResetWarning,0835.8,5.01,000.00,028.9,026.6,000.0,037.3,030.4,29.4,0000.0,0005.07,0014.52,0003.72
2023-07-28 04:20:00,SystemResetWarning,0835.8,5.01,000.00,028.9,026.9,000.0,037.3,030.5,29.3,0000.0,0005.12,0015.33,0003.74
2023-07-28 04:21:00,SystemResetWarning,0835.8,4.99,000.00,028.9,027.2,000.0,037.3,030.6,29.2,0000.0,0005.09,0015.59,0003.75
2023-07-28 04:22:00,SystemResetWarning,0835.8,4.99,000.00,028.9,027.4,000.0,037.3,030.7,29.0,0000.0,0005.08,0017.01,0003.75
2023-07-28 04:23:00,SystemResetWarning,0835.8,5.00,000.00,029.0,027.6,000.0,037.3,030.7,29.1,0000.0,0005.03,0017.03,0003.74
2023-07-28 04:24:00,SystemResetWarning,0835.8,5.00,000.00,029.0,027.8,000.0,037.4,030.8,28.9,0000.0,0004.96,0016.83,0003.73
2023-07-28 04:25:00,SystemResetWarning,0835.9,5.00,000.00,029.1,027.8,000.0,037.4,030.8,28.9,0000.0,0004.87,0016.61,0003.72
2023-07-28 04:26:00,SystemResetWarning,0835.9,4.99,000.00,029.1,026.4,000.0,037.3,030.6,28.9,0000.0,0004.77,0017.25,0003.70
2023-07-28 04:27:00,SystemResetWarning,0835.8,5.01,000.00,029.0,025.4,000.0,037.2,030.4,29.4,0000.0,0004.76,0017.49,0003.68
2023-07-28 04:28:00,SystemResetWarning,0835.8,5.00,000.00,028.9,025.4,000.0,037.2,030.2,29.4,0000.0,0004.77,0018.58,0003.66
2023-07-28 04:29:00,SystemResetWarning,0835.9,4.99,000.00,028.9,025.7,000.0,037.2,030.2,29.2,0000.0,0004.80,0018.33,0003.65
2023-07-28 04:30:00,SystemResetWarning,0835.8,5.00,000.00,028.9,026.1,000.0,037.3,030.3,29.1,0000.0,0004.76,0017.49,0003.64
2023-07-28 04:31:00,SystemResetWarning,0835.8,5.01,000.00,028.9,026.5,000.0,037.3,030.4,29.0,0000.0,0004.71,0017.48,0003.63
2023-07-28 04:32:00,SystemResetWarning,0835.8,5.00,000.00,028.9,026.9,000.0,037.3,030.5,29.0,0000.0,0004.71,0017.89,0003.60
2023-07-28 04:33:00,SystemResetWarning,0835.8,5.00,000.00,028.9,027.2,000.0,037.3,030.6,29.1,0000.0,0004.78,0017.35,0003.60
2023-07-28 04:34:00,SystemResetWarning,0835.8,4.99,000.00,029.0,027.4,000.0,037.3,030.7,29.2,0000.0,0004.77,0017.09,0003.60
2023-07-28 04:35:00,SystemResetWarning,0835.8,5.00,000.00,029.0,027.6,000.0,037.4,030.7,29.0,0000.0,0004.81,0016.77,0003.61
2023-07-28 04:36:00,SystemResetWarning,0835.9,5.00,000.00,029.1,027.8,000.0,037.4,030.8,28.9,0000.0,0004.87,0016.24,0003.61
2023-07-28 04:37:00,SystemResetWarning,0835.9,5.00,000.00,029.1,027.5,000.0,037.4,030.8,29.3,0000.0,0004.95,0015.38,0003.62
2023-07-28 04:38:00,SystemResetWarning,0836.0,5.00,000.00,029.1,025.9,000.0,037.3,030.6,30.6,0000.0,0004.96,0015.05,0003.63
2023-07-28 04:39:00,SystemResetWarning,0836.1,5.01,000.00,029.0,025.2,000.0,037.2,030.4,31.4,0000.0,0004.96,0013.67,0003.63
2023-07-28 04:40:00,SystemResetWarning,0836.2,5.02,000.00,028.9,025.4,000.0,037.2,030.2,31.9,0000.0,0004.94,0013.20,0003.64
2023-07-28 04:41:00,SystemResetWarning,0836.2,4.99,000.00,028.8,025.7,000.0,037.2,030.2,32.4,0000.0,0004.99,0013.39,0003.64
2023-07-28 04:42:00,SystemResetWarning,0836.2,5.00,000.00,028.8,026.1,000.0,037.3,030.3,32.4,0000.0,0004.99,0012.75,0003.64
2023-07-28 04:43:00,SystemResetWarning,0836.2,5.00,000.00,028.9,026.5,000.0,037.3,030.4,32.3,0000.0,0004.99,0011.96,0003.65
2023-07-28 04:44:00,SystemResetWarning,0836.2,5.00,000.00,028.9,026.8,000.0,037.3,030.5,32.1,0000.0,0004.95,0011.51,0003.65
2023-07-28 04:45:00,SystemResetWarning,0836.1,5.00,000.00,028.9,027.1,000.0,037.3,030.6,32.1,0000.0,0004.98,0011.28,0003.66
2023-07-28 04:46:00,SystemResetWarning,0836.1,5.00,000.00,028.9,027.3,000.0,037.3,030.6,31.9,0000.0,0004.98,0011.80,0003.64
2023-07-28 04:47:00,SystemResetWarning,0836.1,5.00,000.00,029.0,027.5,000.0,037.3,030.7,31.8,0000.0,0004.92,0011.31,0003.64
2023-07-28 04:48:00,SystemResetWarning,0836.1,5.00,000.00,029.0,027.7,000.0,037.4,030.7,31.6,0000.0,0004.88,0010.92,0003.65
2023-07-28 04:49:00,SystemResetWarning,0836.1,5.00,000.00,029.1,027.9,000.0,037.4,030.8,31.7,0000.0,0004.90,0011.42,0003.66
2023-07-28 04:50:00,SystemResetWarning,0836.1,5.00,000.00,029.1,028.0,000.0,037.4,030.8,31.2,0000.0,0004.92,0011.70,0003.67
2023-07-28 04:51:00,SystemResetWarning,0835.9,4.99,000.00,029.1,027.5,000.0,037.4,030.8,30.4,0000.0,0004.94,0012.10,0003.67
2023-07-28 04:52:00,SystemResetWarning,0835.8,5.01,000.00,029.1,025.9,000.0,037.3,030.6,30.2,0000.0,0004.89,0012.25,0003.67
2023-07-28 04:53:00,SystemResetWarning,0835.7,5.01,000.00,029.0,025.3,000.0,037.2,030.4,30.6,0000.0,0004.89,0012.21,0003.67
2023-07-28 04:54:00,SystemResetWarning,0835.6,5.01,000.00,028.9,025.5,000.0,037.3,030.2,30.6,0000.0,0004.89,0012.21,0003.67
2023-07-28 04:55:00,SystemResetWarning,0835.5,4.98,000.00,028.9,025.9,000.0,037.3,030.3,31.2,0000.0,0004.90,0012.31,0003.67
2023-07-28 04:56:00,SystemResetWarning,0835.5,5.00,000.00,028.9,026.2,000.0,037.3,030.4,31.6,0000.0,0004.85,0011.97,0003.66
2023-07-28 04:57:00,SystemResetWarning,0835.2,5.01,000.00,028.9,026.6,000.0,037.3,030.5,31.8,0000.0,0004.80,0010.99,0003.67
2023-07-28 04:58:00,SystemResetWarning,0835.3,5.01,000.00,028.9,026.9,000.0,037.4,030.5,31.8,0000.0,0004.78,0010.95,0003.66
2023-07-28 04:59:00,SystemResetWarning,0835.2,5.00,000.00,029.0,027.2,000.0,037.4,030.6,32.3,0000.0,0004.81,0011.39,0003.64
